Time_in_sec,gx,gy,gz
1314365636.20446277,0.13718463,-0.01473026,-0.99043596
1314365636.26549339,0.13710806,-0.01462267,-0.99044816
1314365636.31358314,0.13715919,-0.01440607,-0.99044426
1314365636.36450434,0.13727753,-0.01450387,-0.99042643
1314365636.41347599,0.13724880,-0.01460821,-0.99042888
1314365636.46551633,0.13756563,-0.01465328,-0.99038426
1314365636.51347709,0.13751608,-0.01426454,-0.99039681
1314365636.55647993,0.13752103,-0.01443976,-0.99039359
1314365636.61362314,0.13767340,-0.01456150,-0.99037064
1314365636.66552114,0.13774606,-0.01464086,-0.99035936
1314365636.71352243,0.13773439,-0.01447702,-0.99036339
1314365636.76856303,0.13773213,-0.01455612,-0.99036255
1314365636.80550694,0.13785225,-0.01480295,-0.99034218
1314365636.86552811,0.13742646,-0.01466359,-0.99040343
1314365636.91362762,0.13754408,-0.01482225,-0.99038474
1314365636.96553183,0.13774669,-0.01487372,-0.99035581
1314365637.01352549,0.13766609,-0.01480212,-0.99036809
1314365637.06703329,0.13784298,-0.01500870,-0.99034037
1314365637.10549331,0.13785385,-0.01500184,-0.99033896
1314365637.16551208,0.13802885,-0.01499675,-0.99031466
1314365637.21348572,0.13838712,-0.01501137,-0.99026444
1314365637.26547027,0.13861171,-0.01498584,-0.99023342
1314365637.31361890,0.13839435,-0.01511672,-0.99026183
1314365637.36541033,0.13840179,-0.01485374,-0.99026477
1314365637.40543294,0.13836449,-0.01498112,-0.99026806
1314365637.46548104,0.13828322,-0.01502505,-0.99027875
1314365637.51350427,0.13801184,-0.01501754,-0.99031672
1314365637.56445146,0.13784287,-0.01523841,-0.99033688
1314365637.61355495,0.13771486,-0.01525775,-0.99035439
1314365637.66549468,0.13749207,-0.01555761,-0.99038068
1314365637.71345377,0.13771623,-0.01572421,-0.99034690
1314365637.75647640,0.13779356,-0.01565979,-0.99033717
1314365637.81342554,0.13786234,-0.01560514,-0.99032846
1314365637.86600709,0.13783703,-0.01567645,-0.99033085
1314365637.90849233,0.13766387,-0.01547271,-0.99035814
1314365637.95645142,0.13764746,-0.01522987,-0.99036419
1314365638.01749325,0.13767773,-0.01526394,-0.99035946
1314365638.06446099,0.13786278,-0.01504640,-0.99033704
1314365638.10948372,0.13789573,-0.01504226,-0.99033252
1314365638.16449189,0.13794753,-0.01515576,-0.99032357
1314365638.21651077,0.13786407,-0.01525053,-0.99033374
1314365638.26545930,0.13774437,-0.01537880,-0.99034841
1314365638.31340766,0.13771432,-0.01545500,-0.99035141
1314365638.36542940,0.13778247,-0.01546609,-0.99034176
1314365638.41341186,0.13802399,-0.01550446,-0.99030752
1314365638.45753241,0.13770285,-0.01549174,-0.99035243
1314365638.51346898,0.13775032,-0.01548210,-0.99034598
1314365638.56541061,0.13768057,-0.01528002,-0.99035881
1314365638.61650372,0.13788397,-0.01540530,-0.99032858
1314365638.66947842,0.13782267,-0.01550808,-0.99033550
1314365638.71843481,0.13749375,-0.01545495,-0.99038205
1314365638.76559782,0.13754639,-0.01539787,-0.99037563
1314365638.80849981,0.13754781,-0.01538032,-0.99037571
1314365638.86449957,0.13738534,-0.01554024,-0.99039576
1314365638.91346765,0.13734868,-0.01556534,-0.99040045
1314365638.96448922,0.13712254,-0.01553262,-0.99043230
1314365639.01340652,0.13703897,-0.01552248,-0.99044403
1314365639.05751419,0.13706883,-0.01566334,-0.99043768
1314365639.11375618,0.13697222,-0.01569394,-0.99045056
1314365639.16484880,0.13681565,-0.01544930,-0.99047605
1314365639.22536159,0.13669721,-0.01541256,-0.99049297
1314365639.26573348,0.13679208,-0.01569720,-0.99047540
1314365639.31347895,0.13683373,-0.01565783,-0.99047027
1314365639.35747123,0.13663331,-0.01606069,-0.99049149
1314365639.41339946,0.13667613,-0.01587089,-0.99048864
1314365639.45748687,0.13674695,-0.01598577,-0.99047702
1314365639.51343656,0.13693829,-0.01617271,-0.99044755
1314365639.56549525,0.13675533,-0.01614090,-0.99047335
1314365639.60553718,0.13651058,-0.01604658,-0.99050864
1314365639.65750742,0.13648667,-0.01610007,-0.99051107
1314365639.71347022,0.13638293,-0.01635080,-0.99052125
1314365639.76549721,0.13622155,-0.01629115,-0.99054444
1314365639.80852818,0.13644852,-0.01618402,-0.99051496
1314365639.85744882,0.13643300,-0.01642257,-0.99051317
1314365639.91650605,0.13664549,-0.01644864,-0.99048344
1314365639.96447825,0.13662226,-0.01666704,-0.99048300
1314365640.02161622,0.13696183,-0.01642231,-0.99044019
1314365640.05749440,0.13710802,-0.01618138,-0.99042393
1314365640.11347008,0.13706199,-0.01617776,-0.99043036
1314365640.16453171,0.13684667,-0.01612089,-0.99046106
1314365640.21336150,0.13658707,-0.01634152,-0.99049327
1314365640.26546335,0.13656180,-0.01613999,-0.99050006
1314365640.30558562,0.13660013,-0.01608223,-0.99049572
1314365640.36450815,0.13658000,-0.01606397,-0.99049879
1314365640.41346812,0.13632865,-0.01608289,-0.99053311
1314365640.46683216,0.13631421,-0.01618277,-0.99053347
1314365640.51350355,0.13609770,-0.01610276,-0.99056455
1314365640.55651259,0.13612150,-0.01620963,-0.99055953
1314365640.61347389,0.13626406,-0.01639093,-0.99053695
1314365640.65748978,0.13622542,-0.01614778,-0.99054626
1314365640.71473837,0.13623057,-0.01619658,-0.99054475
1314365640.75747657,0.13643184,-0.01613173,-0.99051811
1314365640.82545924,0.13655233,-0.01606804,-0.99050254
1314365640.85681725,0.13667070,-0.01629594,-0.99048249
1314365640.91346955,0.13665611,-0.01642553,-0.99048236
1314365640.97345829,0.13657273,-0.01651087,-0.99049244
1314365641.01437593,0.13678531,-0.01637072,-0.99046543
1314365641.05747986,0.13672399,-0.01647701,-0.99047214
1314365641.11508298,0.13675725,-0.01618867,-0.99047230
1314365641.15835071,0.13693106,-0.01633952,-0.99044581
1314365641.21346068,0.13699267,-0.01608551,-0.99044145
1314365641.26480055,0.13680793,-0.01619675,-0.99046517
1314365641.31349325,0.13692179,-0.01615552,-0.99045011
1314365641.36532927,0.13719486,-0.01597674,-0.99041522
1314365641.40859413,0.13727477,-0.01601658,-0.99040351
1314365641.45653296,0.13737166,-0.01599159,-0.99039048
1314365641.51575541,0.13733814,-0.01588322,-0.99039687
1314365641.56558108,0.13730198,-0.01613314,-0.99039784
1314365641.61349821,0.13726332,-0.01608387,-0.99040400
1314365641.66453743,0.13708146,-0.01625428,-0.99042641
1314365641.71347713,0.13688992,-0.01603992,-0.99045639
1314365641.75744939,0.13669316,-0.01589956,-0.99048583
1314365641.80852914,0.13679247,-0.01605231,-0.99046966
1314365641.85754085,0.13668302,-0.01590749,-0.99048710
1314365641.90530562,0.13655538,-0.01587566,-0.99050522
1314365641.96531367,0.13620412,-0.01558660,-0.99055817
1314365642.01350427,0.13601877,-0.01553827,-0.99058440
1314365642.06459427,0.13588964,-0.01551647,-0.99060247
1314365642.11350155,0.13578111,-0.01576009,-0.99061350
1314365642.16549540,0.13553125,-0.01579304,-0.99064719
1314365642.21342087,0.13532737,-0.01578387,-0.99067521
1314365642.26547527,0.13513874,-0.01580960,-0.99070055
1314365642.30862737,0.13508778,-0.01580555,-0.99070756
1314365642.36830592,0.13499748,-0.01588212,-0.99071865
1314365642.42455101,0.13515032,-0.01562329,-0.99070192
1314365642.45654154,0.13510394,-0.01543242,-0.99071124
1314365642.51348805,0.13507935,-0.01551093,-0.99071337
1314365642.55726027,0.13483531,-0.01551789,-0.99074650
1314365642.61647987,0.13464937,-0.01555744,-0.99077117
1314365642.66546154,0.13444313,-0.01559478,-0.99079859
1314365642.70547080,0.13464685,-0.01553876,-0.99077181
1314365642.75650191,0.13478364,-0.01556858,-0.99075274
1314365642.81358957,0.13468549,-0.01551021,-0.99076700
1314365642.86847377,0.13454312,-0.01537453,-0.99078846
1314365642.91347599,0.13488293,-0.01538584,-0.99074208
1314365642.96550226,0.13482064,-0.01528286,-0.99075215
1314365643.00946474,0.13469671,-0.01541476,-0.99076697
1314365643.06590581,0.13470284,-0.01540475,-0.99076629
1314365643.11591887,0.13449130,-0.01575270,-0.99078956
1314365643.15653110,0.13446331,-0.01558178,-0.99079606
1314365643.21651101,0.13470163,-0.01550070,-0.99076496
1314365643.25829315,0.13485710,-0.01526148,-0.99074752
1314365643.31746650,0.13472137,-0.01526156,-0.99076599
1314365643.36547804,0.13446908,-0.01546901,-0.99079704
1314365643.41328096,0.13448074,-0.01550690,-0.99079487
1314365643.46950769,0.13464411,-0.01534110,-0.99077526
1314365643.51355648,0.13483971,-0.01526248,-0.99074987
1314365643.55653501,0.13485247,-0.01510078,-0.99075061
1314365643.60556459,0.13490723,-0.01512530,-0.99074278
1314365643.65896916,0.13489244,-0.01486226,-0.99074878
1314365643.70956707,0.13479587,-0.01473415,-0.99076384
1314365643.76548052,0.13479929,-0.01464479,-0.99076470
1314365643.80459547,0.13487546,-0.01477237,-0.99075244
1314365643.86731029,0.13480572,-0.01505542,-0.99075767
1314365643.91334963,0.13455798,-0.01516546,-0.99078966
1314365643.95649886,0.13460251,-0.01512182,-0.99078428
1314365644.01766038,0.13443005,-0.01515666,-0.99080716
1314365644.06454396,0.13430723,-0.01521002,-0.99082300
1314365644.11746669,0.13423935,-0.01515615,-0.99083303
1314365644.15729332,0.13437937,-0.01509608,-0.99081496
1314365644.20860481,0.13447524,-0.01514602,-0.99080119
1314365644.26547337,0.13428922,-0.01512522,-0.99082674
1314365644.31837845,0.13427270,-0.01530988,-0.99082615
1314365644.35656309,0.13408353,-0.01523872,-0.99085286
1314365644.41754460,0.13421009,-0.01517801,-0.99083666
1314365644.46461248,0.13412575,-0.01524642,-0.99084703
1314365644.51746726,0.13431816,-0.01505790,-0.99082385
1314365644.55682683,0.13418202,-0.01486493,-0.99084520
1314365644.61413074,0.13424905,-0.01481016,-0.99083695
1314365644.65749049,0.13433071,-0.01490604,-0.99082444
1314365644.71333718,0.13426413,-0.01481641,-0.99083481
1314365644.75651526,0.13427949,-0.01457911,-0.99083625
1314365644.81750417,0.13452122,-0.01463379,-0.99080265
1314365644.85750914,0.13443912,-0.01450971,-0.99081562
1314365644.91749358,0.13426326,-0.01471942,-0.99083637
1314365644.95748949,0.13427881,-0.01462509,-0.99083566
1314365645.01332140,0.13410839,-0.01471988,-0.99085734
1314365645.06762862,0.13399731,-0.01457419,-0.99087452
1314365645.11361527,0.13389705,-0.01437280,-0.99089101
1314365645.15654325,0.13380530,-0.01442737,-0.99090262
1314365645.21652293,0.13370327,-0.01413799,-0.99092056
1314365645.26467752,0.13381313,-0.01423016,-0.99090441
1314365645.31745768,0.13387150,-0.01408561,-0.99089859
1314365645.35759282,0.13344312,-0.01402295,-0.99095726
1314365645.40545774,0.13345000,-0.01414410,-0.99095461
1314365645.45754170,0.13328478,-0.01403977,-0.99097833
1314365645.51827288,0.13349073,-0.01422179,-0.99094801
1314365645.55725622,0.13361140,-0.01397110,-0.99093532
1314365645.61751080,0.13357084,-0.01400881,-0.99094025
1314365645.65783763,0.13358858,-0.01412336,-0.99093623
1314365645.71746469,0.13354188,-0.01402384,-0.99094394
1314365645.77653074,0.13359625,-0.01406614,-0.99093602
1314365645.80550313,0.13360308,-0.01390398,-0.99093738
1314365645.86549687,0.13344764,-0.01378885,-0.99095994
1314365645.91751051,0.13351044,-0.01403126,-0.99094807
1314365645.95659614,0.13351630,-0.01413773,-0.99094577
1314365646.01750302,0.13346987,-0.01441589,-0.99094802
1314365646.05660534,0.13381747,-0.01422638,-0.99090388
1314365646.11747646,0.13389330,-0.01440746,-0.99089102
1314365646.15722728,0.13399651,-0.01457262,-0.99087465
1314365646.21762919,0.13383155,-0.01453589,-0.99089748
1314365646.25746894,0.13401966,-0.01467355,-0.99087003
1314365646.31751943,0.13385301,-0.01460084,-0.99089363
1314365646.36523008,0.13383988,-0.01450868,-0.99089676
1314365646.41749191,0.13376531,-0.01440203,-0.99090838
1314365646.46522856,0.13369839,-0.01412725,-0.99092137
1314365646.50557160,0.13369060,-0.01420447,-0.99092132
1314365646.56550050,0.13383646,-0.01409235,-0.99090323
1314365646.60556936,0.13370532,-0.01423090,-0.99091895
1314365646.65747452,0.13370747,-0.01426733,-0.99091814
1314365646.70850205,0.13349112,-0.01426905,-0.99094728
1314365646.76499653,0.13369719,-0.01424831,-0.99091980
1314365646.81653595,0.13361268,-0.01441652,-0.99092876
1314365646.85751343,0.13388391,-0.01437323,-0.99089278
1314365646.90962911,0.13374630,-0.01435512,-0.99091163
1314365646.95749378,0.13388467,-0.01435702,-0.99089292
1314365647.00607347,0.13394561,-0.01443310,-0.99088357
1314365647.06546617,0.13403547,-0.01451102,-0.99087029
1314365647.11751485,0.13409790,-0.01435301,-0.99086414
1314365647.15660143,0.13397712,-0.01405769,-0.99088471
1314365647.21647763,0.13388257,-0.01433903,-0.99089346
1314365647.26514292,0.13376687,-0.01422596,-0.99091072
1314365647.31747651,0.13369790,-0.01423892,-0.99091984
1314365647.35709286,0.13368549,-0.01446095,-0.99091830
1314365647.40912318,0.13371587,-0.01439600,-0.99091514
1314365647.46544981,0.13347297,-0.01438088,-0.99094811
1314365647.51659465,0.13343114,-0.01393972,-0.99096005
1314365647.55649114,0.13358830,-0.01390874,-0.99093931
1314365647.60555840,0.13379908,-0.01375032,-0.99091308
1314365647.65649080,0.13374594,-0.01384734,-0.99091890
1314365647.71746731,0.13387764,-0.01400564,-0.99089890
1314365647.76458073,0.13364940,-0.01368246,-0.99093422
1314365647.80950260,0.13353487,-0.01358304,-0.99095103
1314365647.86550784,0.13338439,-0.01355789,-0.99097164
1314365647.91647482,0.13333053,-0.01343563,-0.99098055
1314365647.95645976,0.13347700,-0.01353416,-0.99095949
1314365648.00551629,0.13331718,-0.01321923,-0.99098526
1314365648.05644917,0.13324421,-0.01326414,-0.99099447
1314365648.10544062,0.13337879,-0.01325534,-0.99097648
1314365648.16636419,0.13353204,-0.01331558,-0.99095504
1314365648.21649694,0.13340735,-0.01343493,-0.99097022
1314365648.25745225,0.13333648,-0.01339257,-0.99098033
1314365648.31991005,0.13331174,-0.01336975,-0.99098397
1314365648.35646820,0.13316989,-0.01349297,-0.99100137
1314365648.40548134,0.13297707,-0.01350518,-0.99102710
1314365648.45708156,0.13275779,-0.01368588,-0.99105402
1314365648.51745701,0.13273678,-0.01370866,-0.99105652
1314365648.56448770,0.13277732,-0.01371180,-0.99105104
1314365648.61661863,0.13310849,-0.01341598,-0.99101067
1314365648.66733670,0.13328619,-0.01357551,-0.99098461
1314365648.70451713,0.13345467,-0.01347504,-0.99096331
1314365648.75648046,0.13356583,-0.01336831,-0.99094978
1314365648.80549169,0.13371873,-0.01337188,-0.99092911
1314365648.86453199,0.13387157,-0.01332873,-0.99090905
1314365648.90947318,0.13388170,-0.01331204,-0.99090791
1314365648.95747209,0.13387500,-0.01311945,-0.99091138
1314365649.01650763,0.13358081,-0.01342797,-0.99094695
1314365649.06546402,0.13394781,-0.01349312,-0.99089652
1314365649.11843228,0.13417315,-0.01316980,-0.99087039
1314365649.16450882,0.13404442,-0.01323520,-0.99088694
1314365649.20548248,0.13402787,-0.01328165,-0.99088855
1314365649.26454592,0.13406808,-0.01333232,-0.99088243
1314365649.31691933,0.13408859,-0.01350623,-0.99087730
1314365649.35747671,0.13409810,-0.01361634,-0.99087451
1314365649.41652036,0.13401115,-0.01379684,-0.99088378
1314365649.45746970,0.13386008,-0.01386729,-0.99090321
1314365649.51659083,0.13413798,-0.01393016,-0.99086475
1314365649.55659604,0.13411476,-0.01376591,-0.99087019
1314365649.61702585,0.13414563,-0.01364381,-0.99086770
1314365649.65761685,0.13413193,-0.01388660,-0.99086618
1314365649.71753860,0.13418346,-0.01381777,-0.99086017
1314365649.75710392,0.13420470,-0.01414675,-0.99085265
1314365649.80565739,0.13431741,-0.01410843,-0.99083792
1314365649.85747194,0.13415040,-0.01405766,-0.99086127
1314365649.91647840,0.13412288,-0.01419499,-0.99086303
1314365649.96449804,0.13417341,-0.01378529,-0.99086198
1314365650.01750779,0.13428596,-0.01395659,-0.99084433
1314365650.06448197,0.13422017,-0.01388522,-0.99085425
1314365650.11746860,0.13423205,-0.01405762,-0.99085021
1314365650.15705299,0.13393718,-0.01412972,-0.99088909
1314365650.21760392,0.13388333,-0.01411234,-0.99089661
1314365650.25748086,0.13403626,-0.01391296,-0.99087876
1314365650.31743908,0.13373975,-0.01383150,-0.99091996
1314365650.35762501,0.13367920,-0.01389202,-0.99092728
1314365650.40547657,0.13371026,-0.01390689,-0.99092289
1314365650.46450686,0.13377881,-0.01402155,-0.99091202
1314365650.51749682,0.13379016,-0.01402194,-0.99091048
1314365650.57663965,0.13373345,-0.01403747,-0.99091791
1314365650.61661100,0.13356031,-0.01411125,-0.99094022
1314365650.66553116,0.13351749,-0.01404092,-0.99094699
1314365650.71762466,0.13343817,-0.01375860,-0.99096163
1314365650.76469731,0.13328205,-0.01376807,-0.99098251
1314365650.81698704,0.13337522,-0.01365885,-0.99097149
1314365650.86468005,0.13348558,-0.01371109,-0.99095590
1314365650.90550113,0.13333082,-0.01364580,-0.99097764
1314365650.96551061,0.13330872,-0.01360566,-0.99098117
1314365651.00858831,0.13342631,-0.01362531,-0.99096507
1314365651.05746102,0.13317326,-0.01353402,-0.99100036
1314365651.11761832,0.13312407,-0.01365922,-0.99100525
1314365651.15660477,0.13282218,-0.01324745,-0.99105135
1314365651.21698833,0.13293726,-0.01346340,-0.99103301
1314365651.26453805,0.13301479,-0.01338688,-0.99102364
1314365651.31744671,0.13324631,-0.01340963,-0.99099223
1314365651.36468077,0.13305024,-0.01327887,-0.99102034
1314365651.41706729,0.13316147,-0.01298255,-0.99100932
1314365651.46598148,0.13340445,-0.01308543,-0.99097529
1314365651.51662803,0.13351745,-0.01305511,-0.99096047
1314365651.55761456,0.13328292,-0.01329838,-0.99098881
1314365651.61648965,0.13332238,-0.01314858,-0.99098550
1314365651.66561818,0.13337136,-0.01291658,-0.99098196
1314365651.70949960,0.13328846,-0.01288744,-0.99099349
1314365651.76561522,0.13321573,-0.01267177,-0.99100605
1314365651.81666470,0.13338644,-0.01299198,-0.99097894
1314365651.86546683,0.13323228,-0.01301026,-0.99099944
1314365651.91749930,0.13344485,-0.01289519,-0.99097234
1314365651.96450138,0.13330810,-0.01310730,-0.99098797
1314365652.01647472,0.13340006,-0.01278558,-0.99097979
1314365652.06460571,0.13336568,-0.01289235,-0.99098304
1314365652.10949874,0.13332371,-0.01269878,-0.99099119
1314365652.16464043,0.13336794,-0.01247490,-0.99098808
1314365652.21659064,0.13327823,-0.01251074,-0.99099970
1314365652.26594067,0.13303726,-0.01219566,-0.99103600
1314365652.31748223,0.13263196,-0.01241643,-0.99108758
1314365652.36504340,0.13226126,-0.01240083,-0.99113732
1314365652.42147827,0.13217862,-0.01245005,-0.99114772
1314365652.45660353,0.13198365,-0.01250886,-0.99117296
1314365652.51746511,0.13214358,-0.01260339,-0.99115046
1314365652.56452680,0.13212061,-0.01256943,-0.99115395
1314365652.61653495,0.13192119,-0.01251835,-0.99118116
1314365652.66549444,0.13170944,-0.01239392,-0.99121088
1314365652.71762252,0.13197871,-0.01265359,-0.99117178
1314365652.75760531,0.13217213,-0.01259951,-0.99114670
1314365652.81184435,0.13221214,-0.01257784,-0.99114164
1314365652.85661554,0.13229430,-0.01233412,-0.99113374
1314365652.91746831,0.13236132,-0.01229663,-0.99112526
1314365652.95752001,0.13253392,-0.01208815,-0.99110476
1314365653.01749539,0.13252030,-0.01195832,-0.99110815
1314365653.05745149,0.13270956,-0.01179784,-0.99108475
1314365653.11770105,0.13270578,-0.01176236,-0.99108568
1314365653.16549182,0.13265433,-0.01168440,-0.99109349
1314365653.20545864,0.13252502,-0.01177528,-0.99110971
1314365653.25647497,0.13243083,-0.01183671,-0.99112157
1314365653.31747866,0.13233480,-0.01182901,-0.99113449
1314365653.35691762,0.13213980,-0.01201069,-0.99115832
1314365653.41644096,0.13197726,-0.01203980,-0.99117962
1314365653.45746493,0.13212906,-0.01185357,-0.99116164
1314365653.50516605,0.13216273,-0.01203445,-0.99115497
1314365653.56545663,0.13244351,-0.01205096,-0.99111729
1314365653.60574651,0.13246138,-0.01228420,-0.99111204
1314365653.66453648,0.13240753,-0.01262950,-0.99111490
1314365653.71390629,0.13223485,-0.01250181,-0.99113957
1314365653.75749731,0.13198833,-0.01260554,-0.99117112
1314365653.81659031,0.13216123,-0.01249621,-0.99114946
1314365653.85747886,0.13218105,-0.01285937,-0.99114217
1314365653.92048120,0.13205104,-0.01278989,-0.99116040
1314365653.95661807,0.13204411,-0.01284869,-0.99116056
1314365654.01760197,0.13200829,-0.01319416,-0.99116080
1314365654.05747652,0.13227001,-0.01303957,-0.99112795
1314365654.11685681,0.13232582,-0.01312564,-0.99111936
1314365654.16549635,0.13241679,-0.01297283,-0.99110923
